作者acac5ac (大卫麦哲伦)
看板StarCraft
标题[问题] 笔电电脑配备会LAG
时间Tue May 1 17:00:11 2012
刚买一台SONY的 SB38
可是怎麽跑都会LAG (连1V1电脑都会)
尽管特效全开最低
也是如此
随文附上型号所有资讯
恳请各位大大帮帮我= = !!!
IntelR Core? i7-2640M 处理器 2.80 GHz
晶片组 IntelR HM65 Express Chipset
快取记忆体 4MB (L3 Cache)
主记忆体 原装 4GB
硬碟 750GB (Serial ATA, 5400 rpm)
图形加速器 AMD Radeon? HD 6470M (SPEED MODE) /
IntelR HD Graphics 3000 (STAMINA MODE)
显示卡记忆体 512MB DDR3 (SPEED MODE)
显示器 13.3" wide (WXGA: 1366x768) TFT 彩色显示器
感谢各位大大...
--
※ 发信站: 批踢踢实业坊(ptt.cc)
◆ From: 163.14.34.69
1F:推 oof15:未看先猜电源设定 改成高效能 05/01 17:01
2F:→ SangoDogKing:笔电不解释。 05/01 17:01
3F:→ zaq35715987:笔电有啥好问的............ 05/01 17:01
4F:→ ctx705f:没看内文 不过笔电很难撑起来吧? 05/01 17:02
5F:→ cceHunteR:我C2D 9400M笔电都跑的动了.... 05/01 17:04
6F:推 kioh:这规格应该不会lag 05/01 17:05
7F:→ xnivek216:八成省电模式 效能没全开 05/01 17:05
8F:→ acac5ac:我有改到SPEED了阿= = !! 05/01 17:06
9F:推 jason7086:笔电哪有什麽不行 建议原PO打开高效能 05/01 17:08
10F:推 ohoh0802:我用两三年前的笔电打 开低效能很顺阿 05/01 17:17
11F:→ ohoh0802:萤幕小单位更小很难点到就是了....键盘也不是很好按.... 05/01 17:17
12F:推 kopuck:连内文都没看的人 是在回三小 05/01 17:19
13F:→ zaq35715987:1F 4F 中枪了! 05/01 17:21
14F:推 TllDA:怎麽会有两个显示晶片? 有AMD的又有Intel的? 你启用哪个? 05/01 17:22
15F:推 mortte:楼上一定没用过笔电 05/01 17:26
16F:推 sosobi:我来猜一下 显卡驱动程式没更新 05/01 17:28
17F:推 kevinvic0920:i7开高效应该都不是问题了吧~~八成驱动或省电吧 05/01 17:37
18F:推 findownway:4F本文亮点 05/01 17:39
19F:推 bewty0106:你拿内显打星海三小 05/01 17:39
20F:推 dhzzzj:内显intel hd3000打星海一样顺 只是效果开最低而已 05/01 17:42
21F:推 bewty0106:SPEED MOOD 可能是驱动眼残看成内显 05/01 17:51
22F:→ l11k755013:SB38.. 看到这我笑了.. 傻X三X.. X逼X八.. 05/01 17:51
23F:推 powpow17:我笔电开省电都不会LAG了 05/01 18:12
24F:→ Puser:笔电打电动都会外接设备 单只有笔电不是自虐吗... 05/01 18:17
25F:推 fatedate:应该会很顺才对 显卡驱动程式没更新 应该是这问题 05/01 18:19
26F:→ fatedate:要不然就是你中毒 05/01 18:20
27F:→ pullmoss:虽然笔电效能不比桌电 但是也没那麽不堪好吗... 05/01 19:23
28F:→ pullmoss:我将近五年前的aspire 4720g特效全关1v1也还算顺= = 05/01 19:25
29F:→ pullmoss:那些看到笔电就开枪的真的是..... 05/01 19:25
30F:推 badiverson:驱动吧! 之前笔电也是这样,更新最新驱动就很顺了 05/01 19:53
31F:推 Trystill:我笔电ok 打4f脸 05/01 19:55
32F:→ acac5ac:感谢大家 我成功了:)) 真的是省电 05/01 20:54
33F:→ ctx705f:我脸超肿 叫同学玩SC2他们都说跑不起来=_= 05/01 21:52
34F:→ Puser:笔电等级有分啊 通常有独显的都不错(但常有人不会切换...) 05/01 21:54
35F:推 LZong:呵呵...打脸...XD 05/01 23:02
36F:推 grantkobe:推ctx705f勇於面对xd 05/02 00:47
37F:→ ctx705f:长知识阿 虽然肿归肿... 05/02 00:54
38F:推 jck0406:RAM 512 mb? 05/02 10:09
39F:推 yun0313:笔电I7还不是渣 05/02 10:11